CDT,Max TemperatureF,Mean TemperatureF,Min TemperatureF,Max Dew PointF,MeanDew PointF,Min DewpointF,Max Humidity, Mean Humidity, Min Humidity, Max Sea Level PressureIn, Mean Sea Level PressureIn, Min Sea Level PressureIn, Max VisibilityMiles, Mean VisibilityMiles, Min VisibilityMiles, Max Wind SpeedMPH, Mean Wind SpeedMPH, Max Gust SpeedMPH,PrecipitationIn, CloudCover, Events, WindDirDegrees
2013-4-1,33,26,19,14,9,5,80,50,30,30.11,30.02,29.87,10,10,10,16,9,26,0.00,3,,323
2013-4-2,37,28,19,12,8,3,68,45,28,30.29,30.18,30.10,10,10,10,14,5,23,0.00,2,,318
2013-4-3,37,27,17,21,12,7,80,52,28,30.46,30.35,30.19,10,10,10,16,5,21,0.00,0,,246
2013-4-4,51,40,30,34,23,19,76,54,28,30.19,30.01,29.90,10,10,10,17,11,24,0.00,2,,265
2013-4-5,35,30,26,27,19,12,86,60,41,30.27,30.20,30.07,10,10,10,13,7,,0.00,1,,97
2013-4-6,42,35,28,37,31,25,100,82,61,30.18,29.85,29.46,10,8,1,17,8,26,0.17,8,,168
2013-4-7,44,36,28,37,31,28,100,80,53,30.00,29.82,29.46,10,9,2,14,7,16,0.08,5,,329
2013-4-8,39,34,28,36,33,28,100,93,81,30.04,29.90,29.81,10,8,2,17,7,22,0.01,6,,57
2013-4-9,39,34,30,37,33,23,100,91,75,30.15,30.08,30.03,10,7,3,16,7,22,0.21,7,,46
2013-4-10,37,32,28,30,26,18,100,76,45,30.20,30.12,30.05,10,9,1,17,11,23,0.22,7,,46
2013-4-11,33,30,26,28,26,19,100,82,56,30.07,29.92,29.73,10,7,0,64,20,93,0.01,6,,72
2013-4-12,33,30,26,30,28,27,100,92,81,29.74,29.68,29.62,10,4,1,21,14,45,0.05,8,,58
2013-4-13,37,32,28,30,27,21,100,82,52,29.97,29.79,29.70,10,8,2,12,4,20,0.04,7,,304
2013-4-14,37,27,19,30,25,16,100,84,60,30.05,29.96,29.75,10,9,1,17,5,23,0.01,3,,86
2013-4-15,57,46,35,43,34,25,100,71,36,29.91,29.74,29.60,10,8,1,20,10,38,0.31,4,,249
2013-4-16,50,42,33,30,27,25,87,58,37,30.37,30.11,29.91,10,10,4,17,7,23,0.00,4,,305
2013-4-17,39,32,28,36,31,27,100,87,81,30.40,30.27,30.00,10,10,5,16,9,23,0.00,5,,64
2013-4-18,44,37,33,39,36,32,100,96,87,30.00,29.61,29.24,10,4,0,20,12,24,0.13,8,,64
2013-4-19,44,34,24,43,25,12,100,70,38,29.83,29.38,29.15,10,10,2,20,14,34,0.01,8,,279
2013-4-20,39,30,21,25,15,9,80,57,28,30.42,30.17,29.84,10,10,10,13,8,21,0.00,2,,314
2013-4-21,42,35,28,30,27,21,93,74,49,30.53,30.43,30.25,10,10,3,21,9,26,0.00,5,,167
2013-4-22,44,40,37,39,35,28,100,81,57,30.25,30.19,30.07,10,8,4,17,9,23,0.07,8,,158
2013-4-23,42,36,30,39,32,25,100,80,57,30.08,29.94,29.85,10,8,2,15,7,20,0.10,7,,3
2013-4-24,51,40,28,27,22,16,93,52,24,29.99,29.95,29.90,10,10,10,14,5,21,0.00,1,,295
2013-4-25,51,42,33,34,27,21,87,55,32,30.26,30.06,29.84,10,10,7,16,10,25,0.00,4,,273
2013-4-26,57,44,32,48,36,25,82,66,44,30.27,30.18,30.08,10,10,9,21,7,31,0.05,5,,194
2013-4-27,68,56,46,50,45,37,93,69,52,30.18,30.12,30.03,10,10,10,20,7,26,0.00,1,,211
2013-4-28,66,54,41,45,39,34,87,58,34,30.02,29.90,29.81,10,10,6,10,6,,0.00,1,,158
2013-4-29,59,52,44,54,48,45,100,89,76,29.84,29.81,29.78,10,6,2,9,4,,0.06,6,,157
2013-4-30,68,56,46,55,49,45,100,81,64,29.81,29.73,29.68,10,8,3,24,12,34,0.26,3,Thunderstorm,172